#timestamp,LO_Frequency,Hit,StdDev 
1547838015.2,286047000.7,N
1547838035.0,286046998.4,N
1547838035.9,286046998.4,N
1547838055.8,286046997.1,N
1547838075.6,286046999.5,N
1547838095.5,286046997.0,N
1547838115.3,286046999.5,N
1547838135.1,286046998.8,N
1547838155.9,286046999.2,N
1547838175.7,286046999.6,N
1547838195.5,286046998.8,N
1547838215.4,286046998.2,N
1547838235.2,286046998.4,N
1547838255.0,286047000.5,N
1547838256.0,286047000.5,N
1547838275.8,286047000.8,N
1547838295.6,286047000.2,N
1547838315.5,286047000.9,N
1547838335.3,286046998.3,N
1547838355.1,286047000.6,N
1547838375.9,286047000.1,N
1547838395.7,286047001.2,N
1547838415.5,286047001.2,N
1547838435.4,286047000.8,N
1547838455.2,286047000.7,N
1547838475.1,286046998.8,N
1547838476.0,286046998.8,N
1547838495.8,286047000.0,N
1547838515.6,286047000.8,N
1547838535.5,286046999.9,N
1547838555.3,286046998.9,N
1547838575.1,286046999.7,N
1547838595.9,286047001.2,N
1547838615.7,286046998.1,N
1547838635.6,286047002.2,N
1547838655.4,286047002.2,N
1547838675.2,286047000.2,N
1547838695.1,286047000.6,N
1547838696.0,286047000.6,N
1547838715.8,286047000.4,N
1547838735.6,286047000.0,N
1547838755.5,286047000.5,N
1547838775.3,286047000.1,N
1547838795.2,286047000.5,N
1547838815.9,286046998.1,N
1547838835.7,286047000.7,N
1547838855.6,286047000.7,N
1547838875.4,286047000.2,N
1547838895.2,286047001.0,N
1547838915.1,286047000.3,N
1547838916.0,286047000.3,N
1547838935.8,286047001.0,N
1547838955.7,286047001.2,N
1547838975.5,286046996.6,Y
1547838995.3,286046998.5,P
1547839015.2,286046998.2,N
1547839035.0,286046999.3,N
1547839035.9,286046999.3,N
1547839055.8,286046999.0,N
1547839075.6,286046999.0,N
1547839095.4,286046996.6,Y
1547839115.3,286046996.8,P
1547839135.1,286046997.3,N
1547839155.9,286046997.0,P
1547839175.7,286046998.4,N
1547839195.5,286046998.6,N
1547839215.4,286047000.2,N
1547839235.2,286047000.6,N
1547839255.0,286047000.1,N
1547839255.9,286047000.1,N
1547839275.8,286047000.9,N
1547839295.6,286047002.7,N
1547839315.5,286046999.7,N
1547839335.3,286047002.6,N
1547839355.1,286046998.6,N
1547839375.9,286047002.6,N
1547839395.7,286047002.4,N
1547839415.5,286047000.8,N
1547839435.4,286047001.1,N
1547839455.2,286046998.4,N
1547839475.1,286047000.7,N
1547839476.0,286047000.7,N
1547839495.8,286046999.9,N
1547839515.7,286046998.9,N
1547839535.5,286046998.2,N
1547839555.3,286047000.3,N
1547839575.2,286046998.5,N
1547839595.9,286046999.5,N
1547839615.7,286046999.6,N
1547839635.6,286046998.7,N
1547839655.4,286046999.6,N
1547839675.2,286046999.0,N
1547839695.1,286046998.7,N
1547839696.0,286046998.7,N
1547839715.8,286046998.6,N
1547839735.7,286046998.8,N
1547839755.5,286046999.0,N
1547839775.3,286046999.2,N
1547839795.2,286046999.1,N
1547839815.0,286046998.9,N
1547839815.9,286046998.9,N
1547839835.8,286046999.0,N
1547839855.6,286046998.6,N
1547839875.4,286046998.1,N
1547839895.3,286046998.3,N
1547839915.1,286046999.1,N
1547839916.0,286046999.1,N
1547839935.8,286046997.4,Y
1547839955.7,286046996.6,P
1547839975.5,286046997.7,N
1547839995.4,286047001.2,N
1547840015.2,286046998.9,N
1547840035.0,286046998.3,N
1547840035.9,286046998.3,N
1547840055.8,286047000.8,N
1547840075.6,286046999.8,N
1547840095.4,286047001.9,N
1547840115.3,286047000.3,N
1547840135.1,286047000.1,N
1547840155.9,286047002.6,N
1547840175.7,286047004.4,N
1547840195.5,286047002.4,N
1547840215.4,286047002.4,N
1547840235.2,286047002.3,N
1547840255.0,286047002.1,N
1547840255.9,286047002.1,N
1547840275.8,286047000.8,N
1547840295.6,286047000.2,N
1547840315.4,286047003.0,N
1547840335.3,286047003.3,N
1547840355.1,286047002.2,N
1547840375.9,286047002.2,N
1547840395.7,286047002.3,N
1547840415.5,286046998.1,N
1547840435.4,286047000.9,N
1547840455.2,286047001.2,N
1547840475.0,286047000.5,N
1547840475.9,286047000.5,N
1547840495.8,286046998.3,N
1547840515.6,286047000.3,N
1547840535.5,286047002.6,N
1547840555.3,286047000.0,N
1547840575.1,286047000.9,N
1547840595.9,286047001.8,N
1547840615.7,286047003.2,N
1547840635.6,286047001.9,N
1547840655.4,286047002.8,N
1547840675.2,286047000.2,N
1547840695.1,286046999.3,N
1547840696.0,286046999.3,N
1547840715.8,286046998.3,N
1547840735.6,286046999.3,N
1547840755.5,286046999.5,N
1547840775.3,286046997.7,N
1547840795.2,286046999.0,N
1547840815.9,286047004.0,N
1547840835.7,286047005.6,Y
1547840855.6,286047005.8,P
1547840875.4,286047006.0,N
1547840895.2,286047002.9,N
1547840915.1,286047004.2,N
1547840916.0,286047004.2,N
1547840935.8,286047005.5,Y
1547840955.7,286047001.8,P
1547840975.5,286047000.5,N
1547840995.3,286046999.7,N
1547841015.2,286046999.3,N
1547841035.0,286046998.4,N
1547841035.9,286046998.4,N
1547841055.7,286046998.2,N
1547841075.6,286046998.2,N
1547841095.4,286046996.9,N
1547841115.3,286046998.7,N
1547841135.1,286046999.6,N
1547841136.0,286046999.6,N
1547841155.8,286046996.7,N
1547841175.7,286046996.8,N
1547841195.5,286046996.9,N
1547841215.3,286046995.1,N
1547841235.2,286046998.8,N
1547841255.0,286046996.5,N
1547841255.9,286046996.5,N
1547841275.8,286046997.0,N
1547841295.6,286046997.7,N
1547841315.4,286046999.4,N
1547841335.3,286046997.3,N
1547841355.1,286046997.1,N
1547841375.8,286046996.7,N
1547841395.7,286046997.7,N
1547841415.5,286046995.0,N
1547841435.4,286046995.1,N
1547841455.2,286046993.4,Y
1547841475.0,286046997.6,P
1547841475.9,286046997.6,P
1547841495.8,286046998.0,P
1547841515.6,286046997.8,Y
1547841535.4,286046999.5,P
1547841555.3,286046999.9,N
1547841575.1,286047000.2,N
1547841595.9,286047000.8,N
